Vertical_Velocity
1 1 -1 -0 -0 -2 -2 -3 -1 -0 -1 -2 -0 -1 -1 -1 1 -1 -4 -4 -3 -9 -6 -3 -6 -3 -2 2 7 -3 -3 1 2 -2 1 1 1 -16 2 1 20 4 1 4 -7
-0 -0 2 0 -1 -1 -2 -2 -2 -0 -1 -1 -3 -4 -4 -2 -3 -3 -1 -5 -6 -5 -7 -6 -4 2 -3 1 -4 -2 -3 -2 -2 -0 3 -2 -1 -9 0 5 20 -3 20 9 -8
-2 -1 -1 -1 -2 -2 -3 -1 1 -1 -1 -1 -1 -3 -3 -5 -2 -5 -3 -10 -6 -9 -11 -3 -1 -3 -1 -4 -3 3 -2 -3 -3 1 -1 1 -2 -9 -3 2 11 -10 26 9 -6
-0 -0 -0 0 -1 -3 -2 -3 -3 -2 -0 -2 -0 -3 0 3 -6 -1 -5 -2 -6 -8 -5 -0 -1 -3 -1 -3 -2 3 -3 3 -5 -6 1 -2 -1 2 -1 11 9 8 3 35 1
-1 -1 -1 -1 -1 -3 -1 -2 -2 -2 -3 -3 -2 -3 -1 1 -6 -7 -6 -5 -5 -2 -4 -2 -1 3 -1 -2 -3 -2 2 1 -3 -4 -5 -2 0 6 7 11 6 18 24 9 4
-1 1 -1 -3 -1 -2 -2 -2 -0 -0 -3 -1 1 -2 -5 -6 -6 2 -8 -1 -2 -1 -10 -4 -2 -2 -0 -13 -5 -0 2 -2 -2 -0 -1 -2 3 -13 20 -11 -0 16 21 21 -3
-1 -3 -1 0 -1 -2 -2 -1 -1 -1 -2 -1 1 -2 -3 -5 -2 -3 2 -16 -15 -9 -1 -2 -2 -6 2 2 -5 -6 1 1 -2 1 -1 2 0 8 3 -4 -2 11 -1 8 18
-1 -1 1 -0 -3 -2 -2 -1 0 0 -1 -1 -4 1 -3 1 -6 -12 -6 7 -4 -3 -7 1 2 1 -1 11 3 -7 -1 0 7 5 -4 3 1 -8 2 -10 2 2 17 8 25
-1 -1 0 -1 -3 -2 -3 -1 -0 -2 -2 -5 -2 -3 -2 -3 -3 -0 -7 -7 -9 -5 -0 -0 3 -2 -1 -3 2 1 -2 -1 1 -1 -1 -2 1 4 -5 17 -4 -17 -4 5 5
-2 -0 -3 -1 -2 -3 -2 -2 -2 -6 -1 -3 -10 -6 -8 2 -7 -0 -13 -7 2 -3 2 -2 -6 -1 -5 2 -6 3 -5 -4 3 -2 -2 -4 -0 -13 2 -13 -4 6 -1 7 8
-2 -2 -2 -2 -2 -3 -0 -3 -0 4 -0 2 -2 1 3 0 -7 -0 -3 -3 -8 -13 2 -2 -8 -3 -2 -4 -6 -4 2 2 1 -2 -3 -4 1 -12 -11 -4 9 3 4 -1 2
-3 -1 -1 -1 -5 -3 1 -3 1 -1 -1 -2 -2 -12 -5 -9 4 9 0 -3 -2 -5 -7 -6 -2 -5 5 3 -1 -4 1 2 -4 -2 -4 1 -4 15 15 40 -18 -2 -1 20 7
-3 -1 -1 -2 -2 -2 -1 1 0 -0 0 -5 5 -4 -3 -6 -9 -4 -5 -5 -5 -0 -3 -4 -1 -3 -6 -1 3 -2 -2 -4 -1 -5 5 -1 1 18 9 21 10 -13 -19 -18 2
-2 -2 -2 -3 -0 1 0 0 -1 0 -3 -6 -7 -8 -1 -4 -1 -12 -6 -4 -8 -1 -0 1 -3 -10 -7 -4 3 1 -2 0 -2 -6 6 4 33 -4 1 7 1 -3 -14 -4 0
-3 -1 0 -4 -1 0 -5 -1 -3 -4 -4 -6 -3 -12 -15 -9 -3 1 -13 -7 -11 -1 2 -2 -2 4 0 -2 -1 -1 -1 -0 1 -3 11 9 -6 -5 1 6 6 11 -19 -6 0
-3 -3 1 -3 -1 -1 -1 -3 -2 -4 -4 -2 -2 -3 3 -6 -4 -2 -4 -2 4 -10 -5 -5 -3 -5 -2 -5 -3 -1 -3 -1 3 -3 4 10 1 2 -2 1 3 9 -15 -24 -21
-3 -3 1 -1 1 0 -2 -2 -5 -1 -4 -8 0 -3 -1 -6 -1 -6 -6 -14 -15 -9 -1 -0 4 4 3 -5 -4 -1 1 -3 0 -5 2 1 14 3 8 1 -0 14 4 6 10
-2 -3 -2 -1 -3 -1 -2 -4 -3 -1 -2 1 -5 -7 -6 2 -4 -1 -6 1 -1 -1 -8 -5 -2 2 5 -0 -4 -4 -1 3 1 -4 10 4 -2 -9 5 5 10 20 1 -16 -14
-4 -1 -2 -1 0 -2 -3 -2 -2 1 -1 -3 -3 -1 -4 -5 -2 -6 -4 -8 -3 -3 -1 6 -4 -15 -4 -1 -3 -3 -2 2 -0 -4 -1 -3 1 4 -2 7 3 8 13 -6 3
0 -1 -2 -0 -1 -1 -2 -4 -1 1 -3 -2 -2 2 -6 -3 1 -5 -2 -5 -4 -2 -3 -6 0 -2 -0 -7 -1 -2 -0 1 4 2 8 1 5 7 -0 5 -0 17 14 6 -4
-1 2 1 -1 3 -0 -1 -3 -1 -2 -1 -3 -2 -2 -5 1 -6 -2 -8 -4 -5 -4 -1 -2 -4 -5 -5 1 -5 0 -0 1 4 -3 -0 -3 3 9 3 9 -4 9 6 13 20
1 1 2 -2 2 1 -2 -1 -3 -3 -1 -4 -3 -3 -3 -5 -6 -2 2 -3 -1 -3 -3 5 -3 1 -4 -3 -4 -1 -2 2 -0 2 -5 0 -2 7 -5 2 5 10 3 12 53
-0 1 -3 1 -2 0 -1 -4 -2 -1 1 -4 -3 -3 -2 -7 -6 -3 -7 -5 -4 -7 4 5 4 -0 -3 -2 -3 -1 0 -2 -0 4 -3 2 -0 -2 -1 9 1 9 13 14 49
-1 3 1 1 -1 -3 -2 -1 -2 -1 -3 0 -2 -3 -2 -3 -2 -2 -1 -1 -1 -4 -5 1 3 3 -0 -1 -3 -4 1 -3 -2 -3 5 2 5 0 1 -1 -0 6 10 1 40
0 1 -1 -1 1 -0 -1 -2 -3 -1 -1 -1 -3 -1 -3 -2 -2 1 -1 -7 -6 1 2 -5 -5 -2 0 0 -1 -3 -0 -3 -4 -1 -1 1 2 2 2 -0 -2 11 13 14 21
1 -0 -1 1 -2 1 -1 -1 -0 -2 1 -0 -2 -5 -3 -3 -5 -3 -1 -4 -0 -2 -5 -3 -4 1 -3 -1 2 -2 -3 -1 -6 -1 0 -1 -1 3 -1 -1 -1 1 16 18 10
0 -1 1 -3 -1 -0 -3 -2 -1 -4 1 -1 -0 -2 -3 -3 -3 -4 -2 -5 -4 -2 -4 0 -4 -1 1 -1 -0 -1 -2 -2 -3 -2 -2 1 -4 1 4 3 1 -2 9 6 -3
Height
5840 5837 5834 5830 5826 5822 5816 5810 5803 5797 5791 5785 5780 5777 5773 5770 5765 5758 5751 5744 5734 5723 5709 5696 5679 5663 5645 5629 5613 5603 5597 5593 5588 5588 5593 5592 5598 5604 5614 5631 5645 5654 5661 5671 5688
5836 5833 5830 5827 5823 5818 5812 5806 5799 5792 5786 5781 5777 5773 5768 5763 5758 5751 5744 5735 5724 5712 5699 5683 5668 5651 5635 5618 5605 5595 5589 5583 5580 5582 5586 5586 5588 5596 5609 5617 5632 5646 5656 5664 5676
5833 5830 5826 5823 5819 5815 5809 5802 5795 5788 5782 5777 5773 5768 5763 5757 5752 5745 5736 5726 5714 5703 5688 5670 5653 5638 5624 5605 5594 5589 5580 5577 5576 5576 5578 5579 5581 5587 5601 5612 5627 5637 5645 5656 5667
5829 5826 5822 5819 5815 5811 5804 5798 5790 5784 5778 5773 5769 5763 5758 5752 5746 5738 5728 5719 5707 5694 5678 5661 5644 5630 5611 5598 5588 5581 5575 5573 5571 5570 5571 5572 5577 5586 5594 5609 5618 5625 5644 5647 5658
5825 5822 5818 5815 5811 5806 5800 5793 5785 5779 5773 5769 5765 5759 5754 5749 5741 5733 5724 5712 5698 5684 5668 5652 5634 5621 5604 5592 5584 5576 5572 5569 5567 5565 5565 5566 5572 5580 5589 5595 5607 5617 5632 5641 5651
5820 5818 5814 5811 5807 5802 5795 5789 5781 5774 5770 5764 5760 5755 5749 5743 5735 5727 5717 5706 5692 5677 5661 5643 5628 5612 5595 5584 5578 5573 5569 5567 5566 5564 5562 5563 5567 5569 5581 5586 5593 5607 5619 5631 5645
5816 5815 5811 5807 5803 5797 5791 5784 5777 5771 5766 5761 5755 5750 5744 5738 5730 5722 5709 5696 5686 5670 5652 5634 5618 5604 5589 5580 5574 5569 5569 5566 5563 5562 5562 5561 5563 5569 5574 5578 5588 5598 5611 5624 5636
5814 5811 5807 5804 5799 5792 5786 5779 5772 5767 5762 5756 5752 5746 5739 5732 5723 5714 5703 5691 5675 5661 5644 5628 5613 5598 5586 5577 5569 5565 5566 5565 5561 5561 5561 5560 5562 5567 5572 5576 5580 5591 5605 5616 5628
5809 5807 5804 5800 5795 5788 5782 5774 5768 5764 5757 5753 5748 5741 5735 5726 5715 5707 5698 5687 5672 5657 5638 5624 5610 5597 5586 5574 5566 5561 5562 5562 5562 5561 5562 5562 5564 5571 5575 5581 5585 5591 5601 5609 5621
5805 5802 5799 5795 5790 5783 5777 5771 5764 5759 5754 5750 5744 5738 5729 5722 5712 5702 5687 5676 5665 5649 5634 5617 5603 5590 5576 5569 5561 5557 5558 5561 5562 5562 5561 5561 5563 5570 5578 5579 5581 5587 5595 5606 5617
5801 5799 5795 5791 5785 5779 5773 5767 5763 5759 5752 5747 5741 5733 5726 5716 5706 5697 5687 5671 5654 5638 5624 5608 5596 5584 5573 5565 5558 5556 5558 5560 5561 5562 5563 5563 5565 5573 5579 5581 5583 5587 5592 5602 5613
5797 5794 5792 5786 5779 5774 5768 5763 5759 5755 5749 5742 5736 5728 5720 5712 5704 5694 5680 5669 5653 5636 5618 5605 5592 5580 5571 5563 5557 5557 5559 5560 5561 5562 5563 5565 5569 5573 5578 5580 5583 5586 5590 5597 5611
5792 5790 5787 5783 5776 5769 5764 5760 5756 5750 5746 5739 5732 5725 5717 5708 5698 5688 5677 5662 5646 5630 5617 5604 5590 5578 5570 5563 5559 5559 5560 5562 5562 5563 5564 5569 5571 5575 5575 5580 5582 5587 5591 5599 5606
5787 5784 5782 5778 5772 5766 5759 5756 5752 5746 5741 5734 5727 5719 5712 5702 5691 5681 5667 5657 5643 5626 5612 5601 5587 5577 5569 5563 5562 5562 5562 5563 5563 5564 5564 5570 5574 5575 5575 5578 5581 5586 5591 5596 5604
5783 5781 5777 5770 5765 5761 5757 5752 5748 5743 5737 5730 5721 5713 5704 5697 5688 5676 5664 5645 5633 5624 5611 5599 5588 5579 5571 5565 5564 5565 5564 5564 5565 5566 5569 5572 5574 5576 5577 5579 5579 5583 5586 5592 5604
5778 5776 5773 5768 5760 5756 5752 5747 5744 5739 5731 5725 5717 5709 5701 5692 5684 5674 5661 5646 5629 5612 5605 5596 5585 5577 5570 5566 5565 5566 5567 5567 5567 5569 5570 5572 5573 5576 5579 5580 5582 5583 5583 5593 5604
5773 5771 5767 5762 5757 5752 5748 5744 5741 5733 5728 5721 5714 5706 5697 5689 5680 5670 5657 5643 5634 5623 5610 5599 5588 5578 5573 5568 5567 5568 5569 5570 5571 5571 5574 5574 5574 5576 5577 5578 5581 5582 5587 5597 5605
5768 5766 5762 5757 5751 5747 5744 5741 5735 5728 5722 5715 5708 5700 5693 5686 5675 5663 5651 5640 5626 5613 5604 5598 5589 5580 5574 5571 5569 5568 5570 5571 5572 5574 5575 5576 5577 5579 5576 5579 5581 5583 5588 5595 5604
5762 5760 5757 5751 5746 5744 5740 5736 5730 5724 5718 5710 5703 5695 5687 5677 5669 5657 5645 5632 5620 5611 5603 5593 5584 5578 5574 5572 5571 5570 5570 5572 5573 5575 5577 5578 5578 5578 5578 5578 5581 5586 5589 5596 5604
5756 5754 5750 5745 5742 5739 5736 5731 5726 5719 5712 5705 5698 5691 5683 5675 5665 5654 5641 5628 5616 5608 5598 5591 5585 5579 5575 5572 5571 5570 5571 5574 5574 5576 5576 5578 5578 5579 5580 5581 5581 5584 5588 5592 5602
5749 5746 5743 5739 5738 5735 5730 5726 5720 5714 5708 5701 5693 5686 5679 5670 5661 5649 5637 5627 5613 5605 5598 5589 5582 5579 5574 5572 5570 5571 5571 5572 5575 5575 5574 5576 5578 5579 5580 5581 5581 5584 5587 5588 5595
5742 5739 5736 5733 5732 5728 5724 5720 5716 5709 5702 5696 5689 5682 5674 5665 5656 5646 5634 5622 5613 5605 5599 5588 5581 5577 5574 5572 5570 5570 5571 5572 5574 5577 5575 5575 5579 5579 5581 5581 5582 5586 5587 5591 5593
5735 5732 5729 5727 5724 5722 5719 5716 5710 5704 5698 5691 5684 5678 5668 5660 5651 5639 5629 5618 5610 5604 5597 5587 5580 5576 5573 5573 5571 5570 5570 5572 5574 5576 5576 5577 5579 5580 5582 5581 5585 5587 5587 5590 5595
5729 5725 5723 5722 5719 5717 5714 5710 5705 5699 5693 5686 5680 5672 5665 5656 5646 5635 5624 5615 5608 5600 5595 5587 5581 5576 5574 5572 5571 5570 5570 5571 5574 5576 5577 5577 5578 5580 5583 5583 5586 5587 5590 5594 5598
5720 5719 5717 5716 5714 5711 5707 5704 5698 5694 5687 5681 5675 5667 5660 5650 5641 5630 5621 5612 5604 5598 5591 5586 5581 5576 5572 5571 5570 5569 5568 5570 5573 5575 5577 5578 5579 5580 5582 5584 5586 5589 5590 5593 5599
5713 5712 5711 5710 5708 5705 5701 5696 5692 5687 5682 5676 5671 5664 5655 5648 5638 5628 5617 5610 5603 5594 5590 5584 5580 5574 5570 5568 5569 5569 5568 5569 5572 5574 5576 5577 5579 5580 5583 5586 5587 5590 5591 5593 5598
5705 5704 5704 5703 5700 5699 5696 5691 5687 5682 5677 5671 5665 5658 5649 5642 5632 5623 5612 5605 5600 5594 5588 5582 5578 5572 5569 5566 5566 5568 5567 5567 5570 5572 5574 5576 5578 5579 5582 5586 5588 5591 5594 5597 5601